This demonstration page uses our WeatherBlox Daily Observations layout. Learn more.

Left ArrowRight Arrow

36.17497, -115.13722

Hourly Observations for May 18, 2016

Temp ( °F °C ) Dew Point ( °F °C ) Humidity (%) Winds ( mph kmh ) Pressure ( in mb ) Visibility ( mi km ) Precip ( " mm )
12:53 am 00:53 Mostly Clear 69 20.6 47 8.3 45 45 N 12 19 29.96 1015 10 16 N/A
1:53 am 01:53 Mostly Clear 68 20 49 9.4 51 51 N 10 17 29.96 1015 10 16 N/A
2:53 am 02:53 Clear 67 19.4 47 8.3 49 49 N 7 11 29.95 1014 10 16 N/A
3:53 am 03:53 Clear 66 18.9 48 8.9 52 52 NNW 15 24 29.94 1014 10 16 N/A
4:53 am 04:53 Clear 66 18.9 47 8.3 50 50 NNW 13 20 29.94 1014 10 16 N/A
5:53 am 05:53 Sunny 65 18.3 47 8.3 52 52 NNW 13 20 29.95 1014 10 16 N/A
6:53 am 06:53 Sunny 67 19.4 46 7.8 47 47 NNW 12 19 29.96 1015 10 16 N/A
7:53 am 07:53 Sunny 72 22.2 45 7.2 38 38 N 10 17 29.98 1015 10 16 N/A
8:53 am 08:53 Sunny 75 23.9 43 6.1 32 32 N 8 13 29.99 1016 10 16 N/A
9:53 am 09:53 Sunny 77 25 41 5 28 28 N N/A 29.98 1015 10 16 N/A
10:53 am 10:53 Sunny 79 26.1 40 4.4 25 25 VRB 5 7 29.97 1015 10 16 N/A
11:53 am 11:53 Mostly Cloudy 79 26.1 39 3.9 24 24 N N/A 29.96 1015 10 16 N/A
12:53 pm 12:53 Cloudy 80 26.7 39 3.9 23 23 S 5 7 29.94 1014 10 16 N/A
1:53 pm 13:53 Mostly Sunny 83 28.3 39 3.9 21 21 VRB 3 6 29.91 1013 10 16 N/A
2:53 pm 14:53 Sunny 86 30 39 3.9 19 19 VRB 7 11 29.89 1012 10 16 N/A
3:53 pm 15:53 Sunny 85 29.4 38 3.3 19 19 N 3 6 29.87 1011 10 16 N/A
4:53 pm 16:53 Sunny 85 29.4 37 2.8 18 18 N N/A 29.85 1011 10 16 N/A
5:53 pm 17:53 Sunny 85 29.4 37 2.8 18 18 SSW 7 11 29.84 1011 10 16 N/A
6:53 pm 18:53 Sunny 84 28.9 37 2.8 19 19 SE 5 7 29.83 1010 10 16 N/A
7:53 pm 19:53 Clear 84 28.9 37 2.8 19 19 WSW 5 7 29.84 1010 10 16 N/A
8:53 pm 20:53 Clear 81 27.2 38 3.3 21 21 S 6 9 29.85 1011 10 16 N/A
9:53 pm 21:53 Clear 80 26.7 39 3.9 23 23 WSW 5 7 29.86 1011 10 16 N/A
10:53 pm 22:53 Clear 77 25 40 4.4 26 26 N N/A 29.86 1011 10 16 N/A
11:53 pm 23:53 Clear 75 23.9 42 5.6 31 31 N N/A 29.86 1011 10 16 N/A

Powered by AerisWeather